Regional Weather Roundup
Issued by NWS State College, PA

Home | Current Version | Previous Version | Graphics & Text | Print | Product List | Glossary On
Versions: 1 2 3 4 5 6 7 8 9 10 11 12 13 14 15 16 17 18 19 20 21 22 23 24 25 26 27 28 29 30 31 32 33 34 35 36 37 38 39 40 41 42 43 44 45 46 47 48 49 50
000
ASUS41 KCTP 011803
RWRCTP

REGIONAL WEATHER ROUNDUP
NATIONAL WEATHER SERVICE STATE COLLEGE PA
200 PM EDT SUN MAY 01 2016

Note: "fair" indicates few or no clouds below 12,000 feet with no
significant weather and/or obstructions to visibility.

* = STATION THAT DOES NOT REPORT PRECIPITATION /E.G. RAIN...SNOW...ETC/
    THUNDER OR FOG.

PAZ002>004-007>009-013>016-020>023-029>032-011900-
WESTERN PENNSYLVANIA

CITY           SKY/WX    TMP DP  RH WIND       PRES   REMARKS
ERIE           FOG       49  48  97 NE8       29.95S VSB 1/2
MEADVILLE        N/A    N/A N/A N/A MISG      29.92S
FRANKLIN*      CLOUDY    66  57  72 W15       29.95S
NEW CASTLE     MOCLDY    71  59  65 W8        29.93S
BEAVER COUNTY  NOT AVBL
BUTLER*        PTSUNNY   66  61  82 SW8       29.97F
PITTSBURGH INT PTSUNNY   68  59  73 W13       29.94F
PITTSBURGH     PTSUNNY   70  59  68 W8        29.94F
INDIANA*       CLOUDY    64  63  94 W7        29.99S
LATROBE        PTSUNNY   68  61  77 W12       29.96F
WASHINGTON CO* PTSUNNY   68  59  73 NW8       29.96S
$$

PAZ004>006-010>012-017>019-024>028-033>037-041-042-045-046-049>053-011900-
CENTRAL PENNSYLVANIA

CITY           SKY/WX    TMP DP  RH WIND       PRES   REMARKS
BRADFORD       CLOUDY    56  54  93 S5        29.94S
DUBOIS         LGT RAIN  58  56  93 S5        29.94F FOG
CLEARFIELD     CLOUDY    55  53  93 CALM      29.98S
JOHNSTOWN      PTSUNNY   66  53  63 SW12      29.96F
ALTOONA        CLOUDY    57  54  89 SE10      29.99F
STATE COLLEGE  DRIZZLE   50  50 100 E5        30.01S FOG
WILLIAMSPORT   CLOUDY    48  45  89 E10G21    30.06S
SELINSGROVE    LGT RAIN  48  44  86 SE6       30.08S
FT INDIANTOWN  CLOUDY    47  47 100 NE6       30.09F FOG
CAPITAL CITY   CLOUDY    52  47  83 SE9       30.08F
HARRISBURG     CLOUDY    52  48  86 SE8       30.08F
YORK           CLOUDY    51  49  92 SE7       30.07F FOG
$$

PAZ038>040-043-044-047-048-054-055-060>062-067>071-011900-
EASTERN PENNSYLVANIA

CITY           SKY/WX    TMP DP  RH WIND       PRES   REMARKS
SCRANTON       RAIN      46  42  86 CALM      30.08S FOG
MOUNT POCONO   FOG       40  39  97 S13       30.07F VSB 1/2
ALLENTOWN      CLOUDY    48  44  86 E5        30.12S FOG
QUAKERTOWN*    CLOUDY    48  46  93 SE8       30.13R
READING        CLOUDY    48  44  86 S7        30.11S
LANCASTER      CLOUDY    49  47  93 E8        30.09F
COATESVILLE    CLOUDY    48  48 100 SE7       30.11F FOG
POTTSTOWN      LGT RAIN  48  50 100 E5        30.12F
BLUE BELL      CLOUDY    46  46 100 CALM      30.12S
DOYLESTOWN     LGT RAIN  47  46  97 SE5       30.12S
WILLOW GROVE   NOT AVBL
NORTH PHILA    CLOUDY    51  48  89 SE9       30.14S
PHILADELPHIA   LGT RAIN  52  47  83 CALM      30.14R
$$



USA.gov is the U.S. government's official web portal to all federal, state and local government web resources and services.